Flag for U.S.A. Weather past 2 weeks in Ann Arbor, Michigan, U.S.A.

Now
34 °F

Mostly cloudy.


Feels Like: 28 °F
Forecast: 14 / 34 °F
Wind: 7 mph from West

Location: Ann Arbor Municipal Airport

Current Time: Jan 24, 2015 at 11:55:47 PM

Latest Report: Jan 24, 2015 at 10:53 PM


Visibility: 7 mi

Pressure: 29.69 "Hg

Humidity: 92%

Dew point: 32 °F

Location of Ann ArborLocation

Historic Weather in Ann Arbor — Graph

°F

Ann Arbor temperature yesterday

Maximum temperature yesterday: 31 °F (at 12:53 PM)
Minimum temperature yesterday: 23 °F (at 11:53 PM)
Average temperature yesterday: 28 °F

Past Weeks' High & Low Weather Summary

 TemperatureHumidityPressure
High41 °F (Jan 17, 10:53 PM)96% (Jan 12, 5:00 AM)30.77 "Hg (Jan 12, 5:00 AM)
Low-5 °F (Jan 13, 11:53 PM)30% (Jan 13, 2:53 PM)29.57 "Hg (Jan 24, 4:00 PM)
Average23 °F77%30.15 "Hg
* Reported Jan 9 9:53 PM — Jan 24 9:53 PM, Ann Arbor, Weather by CustomWeather, © 2014

Note: Actual official high and low records may vary slightly from our data, if they occured in-between our weather recording intervals... More about our weather records

Advertising

Ann Arbor weather history for previous 24 hours

 ConditionsComfort  
Time TempWeatherWind HumidityBarometerVisibility
9:53 PM
Jan 24
35 °FOvercast.7 mph88%29.69 "Hg7 mi
8:53 PM36 °FOvercast.7 mph82%29.68 "Hg10 mi
7:53 PM35 °FOvercast.6 mph82%29.66 "Hg10 mi
6:53 PM35 °FOvercast.6 mph82%29.64 "Hg10 mi
5:53 PM36 °FMostly cloudy.8 mph79%29.62 "Hg10 mi
4:53 PM37 °FOvercast.10 mph76%29.60 "Hg10 mi
4:00 PM36 °FMostly cloudy.10 mph79%29.57 "Hg7 mi
2:53 PM34 °FOvercast.10 mph82%29.58 "Hg5 mi
1:53 PM33 °FFog.12 mph85%29.59 "Hg4 mi
12:53 PM32 °FIce fog.9 mph85%29.61 "Hg5 mi
11:53 AM31 °FOvercast.8 mph82%29.64 "Hg6 mi
10:53 AM30 °FOvercast.7 mph82%29.66 "Hg6 mi
9:53 AM28 °FIce fog.8 mph85%29.67 "Hg6 mi
8:53 AM27 °FIce fog.8 mph89%29.67 "Hg5 mi
7:53 AM27 °FOvercast.7 mph85%29.69 "Hg7 mi
6:53 AM27 °FOvercast.5 mph85%29.70 "Hg7 mi
5:53 AM26 °FOvercast.5 mph84%29.70 "Hg7 mi
4:53 AM26 °FIce fog.5 mph84%29.72 "Hg6 mi
3:53 AM26 °FOvercast.7 mph84%29.74 "Hg7 mi
2:53 AM26 °FOvercast.6 mph84%29.76 "Hg7 mi
1:53 AM26 °FOvercast.8 mph84%29.78 "Hg8 mi
12:53 AM25 °FOvercast.8 mph85%29.80 "Hg8 mi
11:53 PM
Jan 23
23 °FPassing clouds.8 mph85%29.83 "Hg8 mi
Weather by CustomWeather, © 2014

See weather overviewHow to use our weather pages